Location: Unspecified
(0.0000°N, 0.0000°E)
Time: 02:03:31
(UTC+00:00)

COSMOS 2471 (GLONASS) - Visible Passes

Search period start: 10 December 2022 00:00
Search period end: 20 December 2022 00:00
Orbit: 19084 x 19182 km, 65.9° (Epoch: 09 December)

Date Brightness Start Highest point End Pass type
(mag) Time Alt. Az. Time Alt. Az. Time Alt. Az.
10 Dec ? 14:49:34 10° S 17:26:20 67° E 19:39:05 10° NNE visible
13 Dec ? 05:05:23 10° NNW 07:19:31 70° W 09:54:15 10° S visible
14 Dec ? 03:24:31 10° N 05:54:13 82° E 08:14:42 10° SSE visible
15 Dec ? 01:46:14 10° N 04:29:07 54° E 06:31:19 10° SSE visible
15 Dec ? 19:33:55 10° SW 21:10:01 31° W 04:38:00 10° SE visible
16 Dec ? 17:41:54 10° SSW 19:46:12 57° W 22:28:51 10° N visible
17 Dec ? 15:58:57 10° SSW 18:21:12 84° W 20:50:24 10° N visible
18 Dec ? 14:19:37 10° S 16:56:02 68° E 19:09:16 10° NNE visible
